QPF
0.00 0.00 0.03 0.06 0.04 0.02 0.00 0.00 0.00 0.00 0.00 0.00 0.00 0.00 0.00 0.00 0.00 0.00 0.00 0.00 0.00 0.00 0.00 0.00 0.00 0.00 0.00 0.00 0.00 0.00 0.00 0.00 0.00 0.00 0.00 0.00 0.00 0.00 0.00 0.01 0.01 0.00 0.01
0.00 0.00 0.02 0.06 0.04 0.00 0.00 0.00 0.00 0.00 0.00 0.01 0.01 0.00 0.00 0.00 0.00 0.01 0.01 0.01 0.00 0.00 0.00 0.00 0.00 0.00 0.00 0.00 0.00 0.00 0.00 0.00 0.00 0.00 0.00 0.00 0.00 0.00 0.01 0.06 0.01 0.00 0.00
0.00 0.00 0.01 0.03 0.01 0.00 0.00 0.00 0.00 0.00 0.00 0.01 0.00 0.00 0.00 0.00 0.00 0.01 0.00 0.00 0.00 0.01 0.00 0.00 0.00 0.00 0.00 0.00 0.00 0.00 0.00 0.00 0.00 0.02 0.03 0.00 0.00 0.00 0.00 0.01 0.00 0.00 0.00
0.00 0.00 0.00 0.01 0.00 0.00 0.00 0.00 0.00 0.00 0.00 0.00 0.00 0.00 0.00 0.00 0.00 0.00 0.00 0.00 0.00 0.00 0.00 0.00 0.00 0.00 0.00 0.00 0.00 0.00 0.00 0.00 0.00 0.01 0.01 0.00 0.00 0.02 0.00 0.00 0.00 0.00 0.00
0.00 0.00 0.00 0.01 0.01 0.00 0.00 0.00 0.00 0.00 0.00 0.00 0.00 0.00 0.00 0.00 0.00 0.00 0.00 0.00 0.00 0.00 0.00 0.00 0.00 0.00 0.00 0.00 0.00 0.00 0.02 0.00 0.00 0.01 0.00 0.00 0.00 0.00 0.00 0.00 0.00 0.00 0.00
0.00 0.00 0.01 0.01 0.01 0.00 0.00 0.00 0.00 0.00 0.00 0.00 0.00 0.00 0.00 0.00 0.00 0.00 0.00 0.00 0.00 0.00 0.00 0.00 0.00 0.00 0.00 0.00 0.00 0.00 0.02 0.03 0.03 0.01 0.00 0.00 0.00 0.00 0.00 0.01 0.00 0.00 0.00
0.00 0.00 0.00 0.02 0.01 0.00 0.00 0.00 0.00 0.00 0.00 0.00 0.00 0.00 0.00 0.00 0.00 0.00 0.00 0.00 0.00 0.00 0.00 0.00 0.00 0.00 0.00 0.00 0.00 0.00 0.01 0.05 0.04 0.00 0.00 0.00 0.00 0.00 0.00 0.00 0.00 0.00 0.00
0.00 0.00 0.00 0.01 0.00 0.00 0.00 0.00 0.00 0.00 0.00 0.00 0.00 0.00 0.00 0.00 0.00 0.00 0.00 0.00 0.00 0.00 0.00 0.00 0.00 0.00 0.00 0.00 0.00 0.00 0.01 0.02 0.02 0.00 0.00 0.00 0.00 0.00 0.00 0.00 0.00 0.00 0.00
0.00 0.00 0.00 0.00 0.00 0.00 0.00 0.00 0.00 0.00 0.00 0.00 0.00 0.00 0.00 0.00 0.00 0.00 0.00 0.00 0.00 0.00 0.00 0.00 0.00 0.00 0.00 0.00 0.00 0.00 0.00 0.01 0.03 0.01 0.00 0.00 0.00 0.00 0.00 0.00 0.00 0.00 0.00
0.00 0.00 0.00 0.00 0.00 0.00 0.00 0.00 0.00 0.00 0.00 0.00 0.00 0.00 0.00 0.00 0.00 0.00 0.00 0.00 0.00 0.00 0.00 0.00 0.00 0.00 0.00 0.00 0.00 0.00 0.03 0.05 0.02 0.01 0.00 0.00 0.00 0.00 0.00 0.00 0.00 0.00 0.00
0.00 0.00 0.00 0.00 0.00 0.00 0.00 0.00 0.00 0.00 0.00 0.00 0.01 0.04 0.04 0.00 0.04 0.01 0.00 0.00 0.00 0.00 0.00 0.01 0.00 0.00 0.00 0.00 0.00 0.02 0.07 0.16 0.05 0.07 0.00 0.00 0.00 0.00 0.00 0.00 0.00 0.01 0.01
0.00 0.00 0.00 0.00 0.00 0.00 0.00 0.00 0.00 0.00 0.00 0.00 0.01 0.01 0.05 0.03 0.03 0.02 0.01 0.01 0.02 0.05 0.02 0.01 0.00 0.00 0.00 0.01 0.01 0.03 0.06 0.10 0.02 0.02 0.00 0.00 0.00 0.00 0.00 0.00 0.00 0.00 0.00
0.00 0.00 0.00 0.00 0.00 0.00 0.00 0.00 0.00 0.00 0.00 0.00 0.00 0.04 0.06 0.05 0.02 0.02 0.01 0.02 0.05 0.12 0.14 0.05 0.03 0.05 0.00 0.00 0.01 0.04 0.06 0.01 0.02 0.01 0.00 0.00 0.00 0.00 0.00 0.00 0.00 0.00 0.00
0.00 0.00 0.00 0.00 0.00 0.00 0.00 0.00 0.00 0.00 0.00 0.00 0.01 0.04 0.04 0.10 0.06 0.08 0.08 0.06 0.13 0.28 0.16 0.02 0.08 0.03 0.00 0.00 0.00 0.00 0.02 0.02 0.00 0.00 0.00 0.00 0.00 0.00 0.00 0.00 0.00 0.00 0.00
0.00 0.00 0.00 0.00 0.00 0.00 0.00 0.00 0.00 0.00 0.00 0.00 0.00 0.00 0.11 0.19 0.02 0.00 0.01 0.05 0.08 0.09 0.01 0.04 0.05 0.01 0.00 0.00 0.00 0.00 0.01 0.00 0.00 0.00 0.00 0.00 0.00 0.00 0.00 0.00 0.00 0.00 0.00
0.00 0.00 0.00 0.00 0.00 0.00 0.00 0.00 0.00 0.00 0.00 0.00 0.00 0.00 0.03 0.08 0.04 0.03 0.08 0.03 0.01 0.02 0.01 0.03 0.01 0.00 0.01 0.00 0.00 0.00 0.00 0.00 0.00 0.00 0.00 0.00 0.00 0.00 0.00 0.00 0.00 0.00 0.00
0.00 0.00 0.00 0.00 0.00 0.00 0.00 0.00 0.00 0.00 0.00 0.00 0.00 0.00 0.00 0.00 0.02 0.03 0.04 0.02 0.03 0.02 0.01 0.00 0.00 0.00 0.00 0.00 0.00 0.00 0.00 0.00 0.00 0.00 0.00 0.00 0.00 0.00 0.00 0.00 0.00 0.00 0.00
0.00 0.00 0.00 0.00 0.00 0.00 0.00 0.00 0.00 0.00 0.00 0.00 0.00 0.00 0.00 0.00 0.00 0.02 0.03 0.03 0.05 0.06 0.05 0.00 0.00 0.00 0.00 0.00 0.00 0.00 0.00 0.00 0.00 0.00 0.00 0.00 0.00 0.00 0.00 0.01 0.01 0.00 0.00
0.00 0.00 0.00 0.00 0.00 0.00 0.00 0.00 0.00 0.00 0.00 0.00 0.00 0.00 0.00 0.00 0.00 0.01 0.06 0.02 0.03 0.02 0.00 0.00 0.00 0.00 0.00 0.00 0.00 0.00 0.00 0.00 0.00 0.00 0.00 0.00 0.00 0.00 0.00 0.00 0.00 0.01 0.01
0.00 0.00 0.00 0.00 0.00 0.00 0.00 0.00 0.00 0.00 0.00 0.00 0.00 0.00 0.00 0.00 0.00 0.00 0.01 0.01 0.00 0.01 0.00 0.00 0.00 0.00 0.00 0.00 0.00 0.00 0.00 0.00 0.00 0.00 0.00 0.00 0.00 0.00 0.00 0.00 0.00 0.00 0.01
0.00 0.00 0.00 0.00 0.00 0.00 0.00 0.00 0.00 0.00 0.00 0.00 0.00 0.00 0.00 0.00 0.00 0.01 0.03 0.01 0.01 0.02 0.00 0.00 0.00 0.00 0.00 0.00 0.00 0.00 0.00 0.00 0.00 0.00 0.00 0.00 0.00 0.00 0.00 0.00 0.00 0.00 0.01
0.00 0.00 0.00 0.00 0.00 0.00 0.00 0.00 0.00 0.00 0.00 0.00 0.00 0.00 0.00 0.00 0.00 0.01 0.01 0.00 0.00 0.01 0.01 0.00 0.00 0.00 0.00 0.00 0.00 0.00 0.00 0.00 0.00 0.00 0.00 0.00 0.00 0.00 0.00 0.00 0.00 0.00 0.00
0.00 0.00 0.00 0.00 0.00 0.00 0.00 0.00 0.00 0.00 0.00 0.00 0.00 0.00 0.00 0.00 0.00 0.00 0.00 0.00 0.00 0.01 0.00 0.00 0.00 0.00 0.00 0.00 0.00 0.00 0.00 0.00 0.00 0.00 0.00 0.00 0.00 0.00 0.00 0.00 0.00 0.00 0.00
0.00 0.00 0.00 0.00 0.00 0.00 0.00 0.00 0.00 0.00 0.00 0.00 0.00 0.00 0.00 0.00 0.00 0.00 0.00 0.00 0.00 0.01 0.00 0.00 0.00 0.00 0.00 0.00 0.00 0.00 0.00 0.00 0.00 0.00 0.00 0.00 0.00 0.00 0.00 0.00 0.00 0.00 0.00
0.00 0.00 0.00 0.00 0.00 0.00 0.00 0.00 0.00 0.00 0.00 0.00 0.00 0.00 0.00 0.00 0.00 0.00 0.00 0.00 0.00 0.00 0.00 0.00 0.01 0.00 0.00 0.00 0.00 0.00 0.00 0.00 0.00 0.00 0.00 0.00 0.00 0.00 0.00 0.00 0.00 0.00 0.00
0.00 0.00 0.00 0.00 0.00 0.00 0.00 0.00 0.00 0.00 0.00 0.00 0.00 0.00 0.00 0.00 0.00 0.00 0.00 0.00 0.00 0.00 0.00 0.00 0.00 0.00 0.00 0.00 0.00 0.00 0.00 0.00 0.00 0.00 0.00 0.00 0.00 0.00 0.00 0.00 0.00 0.00 0.00
MSLP
1015.36 1015.07 1014.98 1015.06 1015.28 1015.46 1015.72 1015.83 1016.02 1016.26 1016.39 1016.48 1016.50 1016.67 1016.80 1016.87 1016.94 1017.02 1017.10 1017.18 1017.27 1017.39 1017.52 1017.67 1017.77 1017.81 1017.88 1018.02 1018.08 1018.10 1018.09 1018.23 1018.35 1018.45 1018.54 1018.77 1019.02 1019.10 1018.94 1019.22 1019.39 1019.63 1019.79
1014.77 1014.96 1015.03 1015.13 1015.44 1015.63 1015.91 1016.12 1016.36 1016.52 1016.71 1016.74 1016.90 1017.04 1017.13 1017.19 1017.27 1017.31 1017.31 1017.40 1017.45 1017.53 1017.71 1017.84 1017.92 1018.01 1018.09 1018.07 1018.09 1018.15 1018.24 1018.33 1018.46 1018.57 1018.73 1018.90 1019.05 1019.26 1019.28 1019.42 1019.65 1019.82 1019.87
1014.72 1014.88 1015.09 1015.28 1015.51 1015.84 1016.10 1016.39 1016.59 1016.75 1016.92 1017.09 1017.21 1017.28 1017.33 1017.42 1017.48 1017.58 1017.58 1017.59 1017.62 1017.77 1017.92 1018.07 1018.16 1018.27 1018.32 1018.25 1018.16 1018.28 1018.41 1018.52 1018.61 1018.80 1018.93 1019.14 1019.28 1019.35 1019.53 1019.75 1019.88 1019.96 1020.04
1014.44 1014.85 1015.20 1015.40 1015.63 1015.92 1016.29 1016.60 1016.77 1016.95 1017.15 1017.31 1017.35 1017.44 1017.55 1017.67 1017.70 1017.70 1017.72 1017.77 1017.86 1018.00 1018.13 1018.23 1018.32 1018.45 1018.54 1018.50 1018.40 1018.60 1018.64 1018.62 1018.79 1018.85 1019.08 1019.15 1019.28 1019.57 1019.86 1020.09 1020.16 1020.21 1020.32
1014.39 1014.97 1015.34 1015.60 1015.77 1016.10 1016.47 1016.82 1016.99 1017.15 1017.31 1017.45 1017.53 1017.65 1017.72 1017.80 1017.87 1017.90 1017.92 1017.99 1018.09 1018.21 1018.27 1018.33 1018.46 1018.62 1018.76 1018.73 1018.68 1018.84 1018.86 1018.94 1018.97 1019.04 1019.27 1019.51 1019.65 1019.81 1020.09 1020.38 1020.44 1020.42 1020.57
1014.57 1015.00 1015.49 1015.82 1016.04 1016.36 1016.67 1016.96 1017.18 1017.36 1017.48 1017.65 1017.76 1017.85 1017.97 1018.07 1018.13 1018.12 1018.03 1018.09 1018.16 1018.27 1018.35 1018.43 1018.55 1018.71 1018.85 1018.87 1018.88 1018.88 1019.10 1019.00 1019.08 1019.26 1019.27 1019.57 1019.83 1019.96 1020.25 1020.44 1020.59 1020.71 1020.90
1014.51 1015.13 1015.66 1015.96 1016.25 1016.60 1016.84 1017.12 1017.34 1017.53 1017.69 1017.85 1017.98 1018.12 1018.26 1018.27 1018.21 1018.21 1018.25 1018.31 1018.41 1018.47 1018.54 1018.64 1018.75 1018.80 1018.86 1018.93 1018.81 1019.07 1019.15 1019.22 1019.21 1019.57 1019.68 1019.90 1019.96 1020.10 1020.31 1020.54 1020.70 1020.82 1021.00
1014.53 1015.27 1015.82 1016.23 1016.45 1016.82 1017.00 1017.26 1017.49 1017.68 1017.90 1018.07 1018.20 1018.32 1018.40 1018.40 1018.38 1018.46 1018.53 1018.45 1018.45 1018.53 1018.66 1018.77 1018.82 1018.87 1018.93 1019.01 1019.07 1019.09 1019.15 1019.27 1019.34 1019.86 1020.08 1020.18 1020.18 1020.28 1020.45 1020.63 1020.77 1020.98 1021.15
1014.46 1015.36 1015.94 1016.33 1016.64 1016.95 1017.17 1017.38 1017.57 1017.79 1017.91 1018.05 1018.14 1018.28 1018.44 1018.63 1018.71 1018.63 1018.56 1018.59 1018.64 1018.77 1018.97 1019.09 1018.94 1018.86 1018.93 1018.98 1019.11 1019.25 1019.30 1019.63 1019.91 1020.10 1020.37 1020.60 1020.53 1020.58 1020.75 1020.92 1021.05 1021.18 1021.40
1014.75 1015.41 1016.02 1016.46 1016.77 1017.15 1017.38 1017.49 1017.62 1017.76 1018.02 1018.20 1018.26 1018.34 1018.48 1018.70 1018.79 1018.66 1018.83 1018.99 1019.11 1019.23 1019.28 1019.23 1019.23 1019.17 1019.00 1018.86 1019.20 1019.39 1019.66 1019.73 1019.88 1020.22 1020.53 1020.82 1020.85 1020.90 1021.07 1021.21 1021.33 1021.54 1021.74
1014.80 1015.51 1015.98 1016.46 1016.85 1017.19 1017.50 1017.59 1017.58 1017.99 1018.10 1018.14 1018.28 1018.28 1018.43 1018.61 1018.77 1018.85 1018.99 1018.95 1018.77 1019.06 1019.21 1019.33 1019.38 1019.37 1019.16 1018.88 1019.01 1019.52 1019.78 1019.61 1020.31 1020.48 1020.67 1020.90 1021.08 1021.17 1021.31 1021.47 1021.63 1021.80 1022.00
1014.54 1015.27 1015.85 1016.24 1016.65 1017.06 1017.27 1017.59 1017.81 1017.93 1018.05 1017.97 1018.14 1018.31 1018.29 1018.47 1018.65 1018.93 1019.04 1018.86 1019.20 1019.47 1019.35 1019.15 1019.34 1019.62 1019.50 1019.45 1019.13 1019.59 1020.01 1019.95 1020.23 1020.59 1020.78 1020.99 1021.09 1021.21 1021.40 1021.65 1021.79 1022.03 1022.21
1014.02 1014.79 1015.45 1015.85 1016.24 1016.69 1016.99 1017.46 1017.63 1017.79 1017.90 1017.93 1018.15 1018.32 1018.03 1018.16 1018.42 1018.73 1019.17 1019.08 1019.59 1019.93 1019.04 1019.49 1019.26 1020.10 1019.58 1019.42 1019.20 1019.53 1019.83 1020.14 1020.11 1020.30 1020.62 1020.90 1020.94 1021.14 1021.39 1021.61 1021.83 1022.09 1022.31
1013.74 1014.11 1014.85 1015.21 1015.76 1016.38 1016.80 1017.02 1017.08 1017.33 1017.57 1017.76 1017.71 1017.68 1017.82 1018.15 1018.18 1018.55 1018.97 1019.08 1019.91 1019.87 1019.14 1019.26 1019.73 1019.51 1019.39 1019.20 1019.14 1019.11 1019.64 1020.22 1020.48 1020.53 1020.88 1021.01 1021.11 1021.07 1021.27 1021.46 1021.66 1021.94 1022.23
1013.25 1013.63 1014.28 1014.78 1015.55 1015.95 1016.26 1016.47 1016.65 1016.76 1017.00 1017.19 1017.19 1017.23 1019.03 1019.20 1018.84 1018.36 1018.60 1019.41 1020.00 1019.81 1019.41 1019.50 1019.35 1019.37 1019.13 1019.05 1018.93 1018.78 1019.57 1020.11 1020.21 1020.45 1020.76 1020.91 1021.18 1021.22 1021.19 1021.33 1021.55 1021.82 1022.08
1012.72 1013.19 1013.85 1014.37 1014.91 1015.34 1016.00 1016.31 1016.28 1016.25 1016.37 1016.69 1016.81 1016.94 1018.34 1018.56 1018.59 1018.45 1018.60 1019.04 1019.26 1019.17 1019.72 1019.59 1019.28 1019.13 1018.85 1018.51 1018.63 1018.85 1019.44 1019.85 1019.78 1020.15 1020.41 1020.64 1020.89 1021.16 1021.20 1021.22 1021.40 1021.71 1022.03
1012.31 1012.70 1013.47 1014.02 1014.36 1015.01 1015.58 1015.70 1015.84 1016.02 1016.15 1016.66 1016.85 1016.89 1017.31 1017.61 1017.83 1018.07 1018.29 1018.36 1018.71 1018.79 1018.84 1018.93 1018.70 1018.86 1018.79 1018.68 1018.69 1018.92 1019.00 1019.62 1019.88 1020.02 1020.28 1020.27 1020.54 1020.81 1021.00 1021.21 1021.33 1021.48 1021.67
1011.96 1012.57 1013.22 1013.70 1014.25 1014.76 1015.31 1015.61 1015.82 1015.97 1016.13 1016.31 1016.64 1016.88 1016.95 1017.24 1017.66 1018.00 1018.65 1018.82 1018.76 1018.54 1018.78 1018.71 1019.11 1019.11 1019.13 1019.03 1018.86 1018.97 1018.87 1019.51 1019.65 1019.75 1019.85 1020.02 1020.42 1020.74 1020.96 1021.11 1021.32 1021.66 1021.87
1011.45 1012.29 1012.87 1013.46 1014.02 1014.61 1015.10 1015.46 1015.77 1015.95 1016.17 1016.31 1016.48 1016.73 1016.83 1017.17 1017.47 1017.95 1018.42 1018.53 1018.49 1018.71 1018.76 1018.77 1019.03 1019.15 1019.35 1019.19 1018.91 1019.07 1019.07 1019.23 1019.22 1019.49 1019.71 1019.84 1020.25 1020.49 1020.82 1020.97 1021.18 1021.46 1021.75
1011.04 1011.59 1012.27 1013.13 1013.69 1014.35 1014.91 1015.50 1015.86 1016.07 1016.19 1016.08 1016.19 1016.46 1016.70 1017.12 1017.37 1017.84 1018.33 1018.47 1018.48 1018.60 1018.73 1018.72 1018.91 1019.06 1019.19 1019.10 1018.69 1019.18 1019.28 1018.97 1018.91 1019.54 1019.45 1019.81 1019.99 1020.25 1020.74 1020.91 1021.23 1021.52 1021.59
1010.67 1011.22 1011.79 1012.63 1013.34 1014.11 1014.83 1015.40 1015.96 1016.26 1016.23 1016.08 1016.03 1016.23 1016.50 1016.85 1017.18 1017.67 1018.15 1018.37 1018.53 1018.54 1018.73 1018.79 1018.98 1019.18 1019.24 1019.28 1019.51 1019.61 1019.47 1019.14 1019.26 1019.40 1019.38 1019.78 1019.95 1020.32 1020.66 1020.83 1021.17 1021.28 1021.61
1009.92 1010.56 1011.31 1011.96 1012.85 1013.55 1014.20 1014.82 1015.39 1015.76 1015.92 1015.90 1015.84 1016.12 1016.26 1016.55 1016.85 1017.23 1017.72 1018.12 1018.21 1018.46 1018.73 1018.84 1019.04 1019.38 1019.39 1019.34 1019.88 1020.19 1020.12 1019.73 1019.67 1019.54 1019.53 1019.78 1020.16 1020.34 1020.56 1020.86 1020.93 1021.07 1021.41
1009.17 1009.97 1010.75 1011.50 1012.25 1013.02 1013.64 1014.40 1014.97 1015.49 1015.72 1015.86 1015.88 1015.92 1016.12 1016.10 1016.29 1016.71 1017.24 1017.61 1017.93 1018.34 1018.57 1018.64 1018.93 1019.19 1019.53 1019.58 1019.37 1019.97 1020.33 1020.50 1020.22 1020.27 1019.88 1019.98 1020.10 1020.60 1020.55 1020.71 1020.95 1021.19 1021.41
1008.22 1009.31 1010.12 1010.98 1011.75 1012.46 1013.06 1013.76 1014.30 1014.68 1015.13 1015.27 1015.37 1015.51 1015.69 1015.72 1016.00 1016.40 1016.84 1017.22 1017.61 1017.94 1018.35 1018.39 1018.66 1018.93 1019.34 1019.53 1019.72 1019.37 1019.45 1019.75 1020.43 1021.04 1020.58 1020.39 1020.19 1020.39 1020.71 1020.73 1020.89 1020.95 1021.22
1007.30 1008.46 1009.53 1010.32 1011.16 1011.91 1012.52 1012.96 1013.63 1014.22 1014.51 1014.61 1014.98 1015.25 1015.41 1015.55 1015.58 1015.97 1016.38 1016.85 1017.38 1017.60 1017.92 1018.18 1018.46 1018.76 1018.90 1019.22 1019.45 1019.50 1019.48 1019.75 1020.10 1020.75 1021.19 1020.89 1020.66 1020.43 1020.38 1020.37 1020.60 1020.89 1021.05
1006.80 1007.91 1008.91 1009.80 1010.54 1011.15 1011.91 1012.43 1012.93 1013.53 1014.05 1014.51 1014.72 1015.12 1015.18 1015.35 1015.55 1015.66 1015.98 1016.33 1016.72 1017.17 1017.64 1017.94 1018.09 1018.31 1018.57 1018.78 1019.05 1019.19 1019.45 1019.86 1020.08 1020.19 1020.62 1020.85 1020.67 1020.49 1020.30 1020.32 1020.41 1020.61 1020.89
Thickness
5762 5766 5766 5766 5764 5763 5762 5762 5761 5760 5759 5759 5760 5760 5759 5758 5759 5759 5759 5759 5758 5757 5755 5755 5753 5753 5751 5750 5749 5750 5751 5751 5750 5749 5748 5746 5746 5747 5749 5747 5747 5745 5745
5770 5768 5767 5766 5764 5764 5762 5761 5760 5760 5758 5759 5759 5759 5758 5758 5758 5759 5759 5759 5758 5757 5755 5755 5753 5752 5750 5751 5753 5752 5752 5751 5750 5750 5750 5748 5748 5747 5747 5747 5746 5745 5745
5771 5770 5768 5766 5765 5763 5762 5761 5760 5759 5758 5758 5758 5759 5759 5759 5759 5759 5759 5759 5759 5757 5756 5754 5753 5751 5749 5751 5753 5752 5752 5751 5750 5749 5750 5751 5750 5750 5748 5746 5745 5746 5746
5774 5771 5768 5766 5765 5764 5762 5760 5760 5760 5758 5758 5759 5759 5759 5759 5759 5760 5760 5760 5759 5757 5756 5754 5752 5750 5748 5749 5751 5750 5751 5752 5750 5750 5750 5750 5750 5749 5747 5744 5745 5745 5744
5776 5771 5768 5766 5765 5764 5762 5760 5760 5760 5759 5759 5759 5759 5759 5760 5760 5760 5760 5759 5758 5757 5755 5754 5753 5750 5746 5746 5748 5748 5750 5750 5750 5750 5750 5750 5749 5748 5746 5743 5743 5744 5742
5776 5772 5768 5765 5765 5763 5762 5760 5760 5760 5760 5760 5759 5760 5759 5759 5759 5760 5761 5761 5760 5759 5757 5756 5753 5750 5744 5741 5744 5747 5748 5750 5750 5750 5752 5752 5749 5748 5745 5744 5743 5742 5741
5777 5773 5768 5766 5765 5763 5762 5761 5761 5760 5760 5759 5759 5759 5758 5759 5760 5760 5760 5760 5759 5758 5757 5755 5752 5749 5744 5739 5742 5744 5745 5746 5749 5748 5750 5750 5750 5748 5746 5744 5743 5742 5740
5778 5772 5768 5766 5765 5762 5762 5761 5761 5760 5759 5758 5758 5758 5758 5759 5759 5759 5759 5761 5761 5761 5759 5757 5754 5750 5746 5742 5741 5745 5748 5749 5748 5747 5746 5746 5747 5746 5745 5744 5743 5742 5740
5778 5772 5768 5766 5764 5763 5762 5762 5761 5761 5761 5761 5761 5761 5760 5758 5757 5759 5761 5761 5761 5760 5758 5756 5756 5755 5750 5749 5748 5746 5748 5747 5747 5747 5744 5742 5743 5744 5743 5742 5742 5741 5739
5778 5773 5769 5766 5765 5764 5762 5763 5763 5764 5763 5763 5763 5764 5762 5759 5759 5763 5761 5759 5758 5756 5755 5757 5757 5756 5756 5756 5751 5751 5749 5749 5748 5746 5745 5741 5741 5742 5741 5740 5739 5737 5735
5778 5774 5770 5767 5766 5765 5763 5764 5767 5763 5765 5766 5766 5768 5766 5765 5765 5764 5763 5762 5766 5762 5759 5754 5755 5756 5757 5761 5759 5754 5754 5752 5748 5747 5745 5741 5739 5739 5739 5737 5736 5734 5732
5778 5776 5774 5770 5769 5767 5766 5767 5766 5767 5769 5770 5770 5770 5772 5770 5770 5765 5764 5766 5760 5757 5759 5759 5754 5754 5756 5757 5760 5756 5754 5752 5751 5746 5744 5740 5738 5739 5737 5735 5734 5732 5730
5784 5781 5778 5776 5774 5772 5771 5771 5770 5772 5772 5772 5772 5773 5777 5776 5773 5768 5766 5765 5758 5758 5772 5764 5761 5753 5757 5757 5762 5759 5756 5751 5752 5748 5746 5741 5741 5740 5738 5736 5734 5732 5729
5787 5787 5784 5782 5780 5777 5775 5776 5777 5777 5777 5777 5780 5781 5781 5780 5780 5775 5771 5768 5759 5759 5771 5765 5759 5761 5762 5763 5763 5763 5757 5751 5749 5747 5742 5741 5741 5741 5740 5738 5736 5733 5730
5791 5791 5790 5788 5784 5782 5781 5782 5783 5783 5784 5784 5785 5787 5767 5765 5772 5780 5777 5769 5757 5762 5765 5762 5760 5763 5764 5766 5766 5765 5756 5751 5749 5748 5745 5744 5741 5742 5742 5740 5737 5735 5732
5797 5796 5795 5793 5790 5788 5785 5784 5787 5790 5790 5789 5791 5789 5773 5771 5776 5780 5780 5776 5769 5766 5763 5764 5764 5766 5769 5769 5767 5762 5757 5753 5754 5751 5750 5747 5745 5744 5744 5743 5740 5736 5733
5801 5802 5798 5797 5797 5794 5792 5790 5791 5792 5792 5789 5791 5790 5786 5786 5786 5784 5784 5782 5779 5778 5773 5769 5769 5767 5767 5767 5765 5761 5760 5755 5754 5753 5753 5754 5751 5749 5746 5744 5743 5741 5739
5805 5802 5802 5802 5800 5798 5795 5793 5793 5794 5793 5794 5793 5792 5792 5790 5787 5787 5783 5781 5780 5779 5775 5774 5768 5766 5764 5764 5764 5761 5765 5761 5757 5757 5759 5758 5755 5751 5748 5747 5744 5739 5737
5808 5804 5803 5803 5802 5800 5799 5796 5795 5795 5796 5797 5797 5796 5796 5793 5791 5789 5786 5784 5783 5781 5779 5777 5772 5770 5764 5766 5768 5764 5765 5764 5763 5761 5762 5761 5758 5755 5752 5749 5746 5743 5740
5809 5809 5809 5805 5805 5803 5801 5798 5797 5798 5798 5800 5801 5800 5799 5796 5795 5793 5788 5786 5785 5783 5781 5780 5777 5776 5771 5769 5773 5766 5765 5767 5767 5764 5764 5760 5760 5757 5752 5750 5746 5744 5742
5809 5811 5811 5808 5808 5805 5800 5797 5795 5795 5798 5801 5803 5804 5802 5800 5798 5796 5792 5789 5787 5787 5785 5783 5780 5775 5773 5772 5767 5764 5765 5771 5770 5768 5768 5764 5760 5757 5755 5753 5750 5748 5744
5812 5814 5812 5813 5810 5808 5807 5805 5802 5801 5802 5804 5805 5805 5805 5804 5803 5801 5797 5794 5791 5789 5786 5784 5781 5776 5774 5773 5763 5758 5753 5761 5766 5768 5767 5766 5761 5759 5757 5754 5753 5753 5749
5815 5815 5816 5815 5814 5812 5811 5809 5806 5805 5804 5803 5805 5807 5807 5809 5808 5805 5801 5798 5795 5791 5788 5788 5785 5781 5772 5774 5775 5762 5752 5746 5755 5763 5766 5766 5764 5760 5759 5756 5754 5751 5749
5822 5821 5820 5818 5816 5815 5815 5811 5809 5807 5803 5808 5809 5811 5811 5810 5809 5806 5803 5799 5796 5794 5792 5792 5790 5787 5782 5776 5775 5778 5775 5770 5752 5747 5760 5761 5763 5761 5757 5756 5754 5754 5750
5831 5826 5823 5822 5820 5819 5819 5818 5813 5810 5812 5814 5813 5812 5813 5813 5813 5810 5808 5804 5801 5798 5796 5795 5793 5790 5788 5783 5778 5777 5776 5772 5769 5755 5745 5753 5761 5761 5760 5759 5758 5756 5753
5837 5831 5827 5824 5822 5824 5822 5820 5819 5817 5815 5812 5813 5812 5813 5815 5814 5813 5810 5808 5805 5802 5799 5797 5797 5795 5791 5789 5785 5784 5777 5770 5766 5765 5758 5754 5756 5761 5764 5762 5759 5756 5753